Tracking 25612 objects as of 21-May-2022
HD Live streaming from Space Station
objects crossing your sky now

YZ-1 R/B

Track YZ-1 R/B now!


NORAD ID: 44544
Int'l Code: 2019-061C
Perigee: 22,038.5 km
Apogee: 22,221.3 km
Inclination: 54.7 °
Period: 798.1 minutes
Semi major axis: 28500 km
RCS: Unknown
Launch date: September 22, 2019
Source: People's Republic of China (PRC)
Launch site: Xichang Space Center, China (XSC)

Note: This is a ROCKET BODY
aabbcc
Your satellite tracking list
Your tracking list is empty




NASA's NSSDC Master Catalog

Two Line Element Set (TLE):
1 44544U 19061C   22140.44925030 -.00000006  00000-0  00000-0 0  9991
2 44544  54.6782 235.3632 0032078 242.9343 116.7812  1.80432633 17527
Source of the keplerian elements: AFSPC